Location: Unspecified
(0.0000°N, 0.0000°E)
Time: 20:45:48
(UTC+02:00)

NOSS 3-3 (A) - Visible Passes

Search period start: 30 April 2016 00:00
Search period end: 10 May 2016 00:00
Orbit: 935 x 1276 km, 63.4° (Epoch: 21 April)

Date Brightness Start Highest point End Pass type
(mag) Time Alt. Az. Time Alt. Az. Time Alt. Az.
30 Apr 4.7 21:00:54 10° S 21:05:58 27° ESE 21:06:57 25° E visible
30 Apr 5.9 22:51:37 10° WSW 23:03:32 - N 22:54:45 22° W visible
01 May 5.5 20:18:31 10° SE 20:21:04 13° ESE 20:23:35 10° E visible
01 May 4.6 22:05:45 10° SW 22:11:40 50° WNW 22:17:37 10° N visible
02 May 3.8 21:20:41 10° SSW 21:26:51 81° ESE 21:33:00 10° NNE visible
03 May 4.3 20:36:18 10° S 20:42:01 40° ESE 20:47:43 10° NE visible
03 May 6.5 22:28:54 10° WSW 22:32:36 16° WNW 22:36:19 10° NNW visible
04 May 5.5 21:42:16 10° SW 21:47:43 33° WNW 21:53:11 10° N visible
05 May 7.3 07:29:08 10° NNE 07:34:32 20° ENE 07:39:55 10° ESE visible
05 May 4.3 20:56:46 10° SSW 21:02:52 68° WNW 21:09:00 10° NNE visible
06 May 4.0 20:11:59 10° SSW 20:18:03 61° ESE 20:24:05 10° NNE visible
06 May 7.1 22:08:34 10° WNW 22:08:42 10° WNW 22:08:50 10° WNW visible
07 May 6.4 21:19:09 10° WSW 21:23:46 22° WNW 21:28:26 10° NNW visible
08 May 6.8 07:04:07 10° N 07:10:38 28° ENE 07:17:11 10° ESE visible
08 May 5.2 20:33:05 10° SW 20:38:54 45° WNW 20:44:45 10° N visible
09 May 7.4 06:21:33 10° NE 06:25:40 15° ENE 06:29:48 10° E visible
